Regional Weather Roundup
Issued by NWS Upton, NY

Current Version | Previous Version | Text Only | Print | Product List | Glossary On
Versions: 1 2 3 4 5 6 7 8 9 10 11 12 13 14 15 16 17 18 19 20 21 22 23 24 25 26 27 28 29 30 31 32 33 34 35 36 37 38 39 40 41 42 43 44 45 46 47 48 49 50
000 ASUS41 KOKX 281008 RWROKX REGIONAL WEATHER ROUNDUP NATIONAL WEATHER SERVICE NEW YORK NY 600 AM EDT TUE MAR 28 2017 NOTE: "FAIR" INDICATES FEW OR NO CLOUDS BELOW 12,000 FEET WITH NO SIGNIFICANT WEATHER AND/OR OBSTRUCTIONS TO VISIBILITY. NYZ071-072-176-178-NJZ106-104-281100- NEW YORK CITY METRO AREA CITY SKY/WX TMP DP RH WIND PRES REMARKS Central Park CLOUDY 43 42 97 E6 29.97S FOG Wall St Helipt CLOUDY 45 43 93 NE8 29.96S LaGuardia APRT LGT RAIN 43 40 89 E10 29.95S FOG Kennedy INTL CLOUDY 44 43 96 E7 29.96S Breezy Point N/A 41 N/A N/A E10G16 N/A Newark/Liberty CLOUDY 44 43 96 N8 29.95R FOG Teterboro LGT RAIN 44 42 93 NE8 29.95S FOG $$ NYZ177-179-078>081-281100- LONG ISLAND NEW YORK CITY SKY/WX TMP DP RH WIND PRES REMARKS Jones Beach N/A 41 N/A N/A NE12 N/A Matinecock PT N/A 39 N/A N/A E12 N/A WCI 32 Farmingdale RAIN 43 42 97 E3 29.97R FOG MacArthur/ISP LGT RAIN 42 42 100 E3 29.97R Shirley LGT RAIN 42 42 100 VRB6 29.97S FOG Westhampton LGT RAIN 41 40 96 SE6 30.00R FOG East Hampton FOG 39 39 100 E8 29.98S VSB 1/2 WCI 34 Montauk NOT AVBL $$ NYZ052-065-067-281100- HUDSON VALLEY CITY SKY/WX TMP DP RH WIND PRES REMARKS White Plains DRIZZLE 40 39 97 E3 29.95R Newburgh LGT RAIN 43 43 100 CALM 29.94S FOG Montgomery LGT RAIN 41 40 96 S3 29.92R FOG Poughkeepsie CLOUDY 39 39 100 CALM 29.93S FOG Albany MOCLDY 39 37 92 CALM 29.94S FOG $$ NJZ001-105-106-008-010-013-015-019>022-104-281100- NEW JERSEY CITY SKY/WX TMP DP RH WIND PRES REMARKS Newark/Liberty CLOUDY 44 43 96 N8 29.95R FOG Teterboro LGT RAIN 44 42 93 NE8 29.95S FOG Caldwell CLOUDY 44 43 96 E6 29.95S FOG Somerville CLOUDY 48 46 93 NE5 29.92R FOG Linden CLOUDY 46 44 93 CALM 29.95R FOG Sussex CLOUDY 44 43 96 CALM 29.92F FOG Andover N/A 44 43 96 CALM 29.92S Trenton CLOUDY 47 47 100 E8 29.91S FOG Millville MOCLDY 52 52 100 CALM 29.88S Atlantic City CLOUDY 50 46 86 N3 29.89S Wrightstown NOT AVBL Toms River TSTM 46 45 96 NE6 29.93R FOG Belmar CLOUDY 43 43 100 NE8 29.93F FOG $$ PAZ047>061-062-071-281100- EASTERN PENNSYLVANIA CITY SKY/WX TMP DP RH WIND PRES REMARKS Philadelphia FOG 50 49 96 NE5 29.90S VSB 3/4 Allentown CLOUDY 49 45 86 E6 29.91S FOG Scranton LGT RAIN 50 49 96 E6 29.88F FOG $$ CTZ002-004>006-009-010-012-RIZ004-006-007-MAZ004-011-015-281100- SOUTHERN NEW ENGLAND IN CT CITY SKY/WX TMP DP RH WIND PRES REMARKS Bradley INTL LGT RAIN 38 38 100 CALM 29.98S VSB 1/4 Hartford LGT RAIN 39 38 96 NE3 29.98S FOG Danbury LGT RAIN 40 40 100 CALM 29.97R FOG Wtrbury/Oxford LGT RAIN 39 36 87 E6 29.95S FOG WCI 35 Bridgeport LGT RAIN 41 38 89 SE5 29.99R FOG Meriden LGT RAIN 40 38 93 N3 29.97F VSB 1 New Haven LGT RAIN 40 40 100 CALM 29.98R FOG Chester NOT AVBL Groton FOG 41 40 96 E3 29.99R VSB 3/4 Wilimantic CLOUDY 41 40 96 NE5 29.98F IN RI CITY SKY/WX TMP DP RH WIND PRES REMARKS Providence CLOUDY 40 37 89 NE6 30.00F FOG Block Island LGT RAIN 39 39 100 E10 30.00R VSB 1/2 WCI 32 Westerly FOG 41 41 100 E3 30.00R VSB 3/4 IN MA CITY SKY/WX TMP DP RH WIND PRES REMARKS Boston CLOUDY 36 34 92 CALM 30.03R Worcester FOG 33 32 96 S5 29.98R VSB 1/4 WCI 29 Westfield FOG 37 37 100 CALM 29.97F VSB 1/4 Provincetown CLOUDY 37 36 96 N9 30.01S WCI 30 Nantucket FOG 38 37 97 NE5 30.01R VSB 1 WCI 34 $$ ANZ330-335-338-340-345-350-353-355-281100- COASTAL MARINE OBSERVATIONS STATION/POSITION TIME SKY/WX TEMP WIND PRES VSBY WAVE AIR SEA DIR/SP/G HT/PER (UTC) (F) (DEG/KT/KT) (MB) (MI) (FT/S) NY HARB ENTRANCE 0850 42 42 70/ 12/ 14 1014.0 3/ 6 20 S FIRE ISLAND 0950 43 41 90/ 8/ 10 1013.9 3/ 6 GREAT SOUTH BAY NOT AVBL 23 SSW MONTAUK P 0850 41 42 1015.2 3/ 6 15 E BARNEGAT LI 0930 44 N/A 3/ 8 HUDSON CANYON 0850 47 44 120/ 8/ 10 1014.0 3/ 7 KINGS POINT 0942 40 40 1014.4 EXECUTION ROCKS NOT AVBL CENTRAL LI SOUND 0930 39 100/ 6/ 8 N/A 1 EASTERN LI SOUND NOT AVBL ROBBINS REEF 0948 44 80/ 8/ 9 1014.1 $$ >>>>>>>>>>>>>>>>>>>>>>>>>>>> KEY <<<<<<<<<<<<<<<<<<<<<<<<<<< > < > SKY/WX - Sky Condition/Present Weather < > TMP - Temperature in Fahrenheit < > DP - Dew Point in Fahrenheit < > RH - Relative Humidity in Percent < > WIND - Direction (from) and Speed in MPH < > PRES - Mean Sea Level Pressure (inches of Hg) < > WCI - Wind Chill Index < > VSB - VISIBILITY IN MILES < > HX - HEAT INDEX < > TC - TEMPERATURE IN CELSIUS < > VRB - VARIABLE WIND DIRECTION < > < >>>>>>>>>>>>>>>>>>>>>>>>>>>> KEY <<<<<<<<<<<<<<<<<<<<<<<<<<<

USA.gov is the U.S. government's official web portal to all federal, state and local government web resources and services.